Weather Roundup
Issued by NWS Corpus Christi, TX

Home | Current Version | Previous Version | Text Only | Print | Product List | Glossary On
Versions: 1 2 3 4 5 6 7 8 9 10 11 12 13 14 15 16 17 18 19 20 21 22 23 24 25 26 27 28 29 30 31 32 33 34 35 36 37 38 39 40 41 42 43 44 45 46 47 48 49 50
000
ASUS44 KCRP 231510
HRRCRP

SOUTH TEXAS REGIONAL WEATHER ROUNDUP
NATIONAL WEATHER SERVICE CORPUS CHRISTI TX
1000 AM CDT SAT JUL 23 2016


TXZ229>244-231600-
...CORPUS CHRISTI AREA OBSERVATIONS...

CITY           SKY/WX    TMP DP  RH WIND       PRES   REMARKS
CORPUS CHRISTI PTSUNNY   86  77  74 VRB6      29.99S HX  97
NAS CORPUS CHR PTSUNNY   86  79  79 CALM      29.99R HX  99
ROCKPORT       PTSUNNY   87  74  64 S5        29.98F HX  95
KINGSVILLE NAS MOSUNNY   88  78  72 VRB6      29.99R HX 101
ALICE          MOSUNNY   87  73  62 SE8       29.99R HX  94
FALFURRIAS     MOSUNNY   87  74  64 S8        29.98S HX  96
$$

...VICTORIA AREA OBSERVATIONS...

CITY           SKY/WX    TMP DP  RH WIND       PRES   REMARKS
VICTORIA       MOSUNNY   88  73  61 S7        30.00S HX  95
BEEVILLE       FAIR      86  78  77 S5        30.01S HX  97
PLEASANTON     MOSUNNY   85  72  63 CALM      30.03S HX  91
SAN ANTONIO    MOSUNNY   84  72  67 SW8       30.04S
$$

...LAREDO AREA OBSERVATIONS...

CITY           SKY/WX    TMP DP  RH WIND       PRES   REMARKS
LAREDO         MOSUNNY   88  71  57 SE10      29.99S HX  94
COTULLA        SUNNY     87  71  58 VRB6      30.01R HX  93
DEL RIO        SUNNY     86  71  60 SE12      30.00R HX  91
MCALLEN        MOSUNNY   88  76  67 SE10      29.98R HX  99
HEBBRONVILLE   SUNNY     85  72  65 S8        30.01S HX  90
$$

...OTHER TEXAS OBSERVATIONS...

CITY           SKY/WX    TMP DP  RH WIND       PRES   REMARKS
BROWNSVILLE    MOSUNNY   88  75  65 SE8       29.98R HX  97
HOUSTON        MOSUNNY   87  75  67 VRB6      30.01S HX  96
COL. STATION   MOSUNNY   85  75  72 W7        30.02S HX  93
AUSTIN         MOSUNNY   85  73  67 SW12      30.03S HX  91
WACO           SUNNY     88  70  55 SW8       30.01S HX  93
FORT WORTH     MOSUNNY   90  71  53 SW12      29.99F HX  96
WICHITA FALLS  SUNNY     89  67  47 S15       29.98S HX  92
LUBBOCK        SUNNY     86  59  39 SW14      30.09S
EL PASO        PTSUNNY   85  50  29 CALM      30.08R
$$

...MARINE OBSERVATIONS...

STATION/POSITION TIME  SKY/WX   TEMP    WIND        PRES    VSBY  WAVE   SWELL
                                AIR SEA DIR/SP/G                  HT/PER HT/PER
                 (UTC)          (F)     (DEG/KT/KT) (MB)    (MI)  (FT/S) (FT/S)
PORT ARANSAS     1500            85 87  140/  5/  6 1015.7R
BUOY 90 E PORT A 1450            85 87  160/  4/  4 1015.6          2/ 6   2/ 6
BUOY 45 SE BAFFI 1450            84 84  200/  2/  4 1014.9R         2/ 4   2/ 5
BUOY 200 E PT IS 1450            85 87  300/  2/  2 1016.1R         2/ 4   2/ 6
BUOY 15 E GALVES 1450            86 88  230/  6/  8 1016.0R         2/ 7   2/ 7
$$




USA.gov is the U.S. government's official web portal to all federal, state and local government web resources and services.